M I D A S
Marine Information and Data Acquisition System
Tripno 2297 of the Zeeleeuw from 2012-04-26 08:26:08 to 2012-04-26 14:07:33
Back to CruiseResearch ActivitiesStationsMapUnderway DataData graphs

EquipmentUnitsComments
TimeDGPSUTC
LatitudeDGPSDM.mWGS84
LongitudeDGPSDM.mWGS84
SpeedMeteo Stationm/sRelative wind speed
DirectionMeteo StationdegRelative wind direction
TemperatureMeteo Stationdeg CelciusAir temperature
PressureMeteo StationPaAtmospheric pressure
HumidityMeteo Station%Relative humidity
Missing or incorrect values are displayed as -999
Metereological data collected by the RV Zeeleeuw from 2012-04-26 07:44:46 to 2012-04-26 14:19:11
                                                                                    Next 1000 lines
Time Latitude Longitude Speed Direction Temperature Pressure Humidity
2012-04-26 07:44:56 51°13.642 2°56.017 6.4 356 11.3 99660 46
2012-04-26 07:45:00 51°13.642 2°56.017 7 8 11.3 99660 46
2012-04-26 07:45:06 51°13.642 2°56.017 7.6 9 11.4 99670 47
2012-04-26 07:45:11 51°13.642 2°56.017 6 -999 11.4 99670 47
2012-04-26 07:45:16 51°13.642 2°56.017 4.9 1 11.4 99670 47
2012-04-26 07:45:21 51°13.641 2°56.017 4.8 357 11.4 99670 47
2012-04-26 07:45:27 51°13.641 2°56.017 4.9 359 11.4 99670 47
2012-04-26 07:45:32 51°13.64 2°56.017 5.1 4 11.4 99670 48
2012-04-26 07:45:37 51°13.64 2°56.017 4.7 350 11.4 99680 48
2012-04-26 07:45:41 51°13.64 2°56.017 5.8 2 11.4 99680 48
2012-04-26 07:45:46 51°13.64 2°56.017 4.9 2 11.4 99680 48
2012-04-26 07:45:52 51°13.639 2°56.017 5.4 353 11.4 99680 48
2012-04-26 07:45:57 51°13.639 2°56.017 5.2 6 11.4 99670 49
2012-04-26 07:46:01 51°13.64 2°56.017 7.1 283 11.4 99670 49
2012-04-26 07:46:06 51°13.64 2°56.017 6.1 354 11.4 99680 49
2012-04-26 07:46:12 51°13.64 2°56.017 6.2 -999 11.4 99680 49
2012-04-26 07:46:16 51°13.64 2°56.017 5.4 359 11.4 99680 48
2012-04-26 07:46:22 51°13.64 2°56.017 6 2 11.4 99680 48
2012-04-26 07:46:26 51°13.64 2°56.017 6.2 1 11.4 99680 47
2012-04-26 07:46:31 51°13.64 2°56.017 4.8 357 11.4 99680 47
2012-04-26 07:46:36 51°13.64 2°56.017 6.5 357 11.4 99680 47
2012-04-26 07:46:41 51°13.639 2°56.017 6.1 2 11.4 99680 47
2012-04-26 07:46:46 51°13.639 2°56.017 5.8 356 11.4 99680 47
2012-04-26 07:46:51 51°13.638 2°56.017 5.1 358 11.4 99680 47
2012-04-26 07:46:56 51°13.638 2°56.017 5.5 356 11.4 99670 46
2012-04-26 07:47:02 51°13.639 2°56.017 7.6 357 11.4 99670 46
2012-04-26 07:47:07 51°13.638 2°56.017 4.4 11 11.4 99680 47
2012-04-26 07:47:11 51°13.638 2°56.017 4.7 10 11.4 99680 47
2012-04-26 07:47:17 51°13.639 2°56.017 5.7 13 11.4 99680 46
2012-04-26 07:47:22 51°13.639 2°56.017 5 1 11.4 99680 46
2012-04-26 07:47:27 51°13.638 2°56.017 4.4 358 11.4 99680 48
2012-04-26 07:47:32 51°13.638 2°56.017 6.1 6 11.4 99680 48
2012-04-26 07:47:36 51°13.638 2°56.017 5.8 353 11.4 99680 47
2012-04-26 07:47:42 51°13.638 2°56.017 4.3 355 11.4 99680 47
2012-04-26 07:47:47 51°13.638 2°56.017 4.1 359 11.4 99680 47
2012-04-26 07:47:52 51°13.638 2°56.017 3.8 7 11.4 99680 47
2012-04-26 07:47:56 51°13.637 2°56.017 4.2 347 11.4 99670 47
2012-04-26 07:48:01 51°13.637 2°56.017 6.4 349 11.4 99670 47
2012-04-26 07:48:07 51°13.638 2°56.017 6.5 13 11.4 99680 48
2012-04-26 07:48:12 51°13.638 2°56.017 3.6 -999 11.4 99680 48
2012-04-26 07:48:16 51°13.638 2°56.017 5.8 356 11.4 99680 48
2012-04-26 07:48:21 51°13.638 2°56.017 5.3 359 11.4 99680 48
2012-04-26 07:48:27 51°13.638 2°56.017 3.6 13 11.4 99680 47
2012-04-26 07:48:32 51°13.638 2°56.017 4 359 11.4 99680 47
2012-04-26 07:48:36 51°13.638 2°56.018 5.4 357 11.4 99690 47
2012-04-26 07:48:42 51°13.638 2°56.018 5.1 348 11.4 99690 47
2012-04-26 07:48:47 51°13.638 2°56.017 6.7 3 11.4 99680 47
2012-04-26 07:48:52 51°13.638 2°56.018 6.6 10 11.4 99680 47
2012-04-26 07:48:56 51°13.638 2°56.018 7.1 358 11.4 99680 47
2012-04-26 07:49:02 51°13.638 2°56.018 7.1 2 11.4 99680 47
2012-04-26 07:49:07 51°13.638 2°56.018 7.4 360 11.4 99680 47
2012-04-26 07:49:11 51°13.638 2°56.018 5.7 3 11.4 99680 47
2012-04-26 07:49:16 51°13.638 2°56.018 6.5 356 11.4 99680 48
2012-04-26 07:49:22 51°13.638 2°56.018 7.9 357 11.4 99680 48
2012-04-26 07:49:26 51°13.638 2°56.018 7.5 357 11.4 99680 47
2012-04-26 07:49:31 51°13.638 2°56.018 7.1 352 11.4 99680 47
2012-04-26 07:49:36 51°13.638 2°56.018 5.7 17 11.4 99670 48
2012-04-26 07:49:42 51°13.638 2°56.018 3.8 7 11.4 99670 48
2012-04-26 07:49:46 51°13.638 2°56.018 5.9 8 11.4 99680 47
2012-04-26 07:49:51 51°13.638 2°56.018 6.2 15 11.4 99680 47
2012-04-26 07:49:56 51°13.637 2°56.018 6.1 18 11.4 99680 47
2012-04-26 07:50:01 51°13.638 2°56.018 8 16 11.4 99680 47
2012-04-26 07:50:07 51°13.638 2°56.018 6 23 11.4 99680 48
2012-04-26 07:50:12 51°13.638 2°56.018 4.9 -999 11.4 99680 48
2012-04-26 07:50:16 51°13.638 2°56.018 3.4 353 11.4 99680 48
2012-04-26 07:50:22 51°13.638 2°56.018 4.9 352 11.4 99680 48
2012-04-26 07:50:26 51°13.638 2°56.018 6.8 -999 11.4 99670 47
2012-04-26 07:50:31 51°13.638 2°56.018 6.3 1 11.4 99670 47
2012-04-26 07:50:36 51°13.638 2°56.018 6.9 8 11.4 99680 47
2012-04-26 07:50:42 51°13.638 2°56.018 5.4 4 11.4 99680 47
2012-04-26 07:50:46 51°13.638 2°56.018 3.6 4 11.4 99680 49
2012-04-26 07:50:51 51°13.637 2°56.018 3.3 -999 11.4 99680 49
2012-04-26 07:50:57 51°13.637 2°56.018 4.9 355 11.4 99690 48
2012-04-26 07:51:01 51°13.637 2°56.018 6.6 351 11.4 99690 48
2012-04-26 07:51:06 51°13.637 2°56.018 7.5 359 11.4 99690 47
2012-04-26 07:51:11 51°13.637 2°56.018 6.3 360 11.4 99690 47
2012-04-26 07:51:16 51°13.637 2°56.018 7.1 356 11.4 99680 47
2012-04-26 07:51:21 51°13.637 2°56.018 5.7 356 11.4 99680 47
2012-04-26 07:51:26 51°13.638 2°56.018 4.9 354 11.4 99690 47
2012-04-26 07:51:31 51°13.638 2°56.018 4.1 358 11.4 99690 47
2012-04-26 07:51:36 51°13.638 2°56.018 4.6 24 11.4 99690 49
2012-04-26 07:51:41 51°13.638 2°56.018 5.7 4 11.4 99690 49
2012-04-26 07:51:46 51°13.638 2°56.018 8.8 359 11.4 99690 49
2012-04-26 07:51:51 51°13.638 2°56.018 8.7 354 11.4 99690 49
2012-04-26 07:51:56 51°13.638 2°56.018 7.8 352 11.4 99690 48
2012-04-26 07:52:01 51°13.638 2°56.018 5.6 357 11.4 99690 48
2012-04-26 07:52:06 51°13.638 2°56.018 5.7 358 11.4 99680 48
2012-04-26 07:52:11 51°13.638 2°56.018 7.2 -999 11.4 99680 48
2012-04-26 07:52:16 51°13.638 2°56.018 7.3 350 11.4 99690 47
2012-04-26 07:52:22 51°13.638 2°56.018 5.7 280 11.4 99690 47
2012-04-26 07:52:26 51°13.638 2°56.018 6.2 2 11.4 99690 48
2012-04-26 07:52:31 51°13.638 2°56.018 6.8 353 11.4 99690 48
2012-04-26 07:52:36 51°13.638 2°56.018 4.7 353 11.4 99680 47
2012-04-26 07:52:41 51°13.637 2°56.018 6.7 358 11.4 99680 47
2012-04-26 07:52:46 51°13.637 2°56.018 6 2 11.4 99680 47
2012-04-26 07:52:51 51°13.638 2°56.019 8.9 353 11.4 99680 47
2012-04-26 07:52:56 51°13.637 2°56.018 8.7 9 11.4 99690 48
2012-04-26 07:53:01 51°13.637 2°56.018 5 1 11.4 99690 48
2012-04-26 07:53:06 51°13.637 2°56.018 5.4 2 11.4 99680 48
2012-04-26 07:53:11 51°13.637 2°56.019 6.3 358 11.4 99680 48
2012-04-26 07:53:16 51°13.637 2°56.018 6.9 353 11.4 99680 48
2012-04-26 07:53:21 51°13.637 2°56.018 8.5 4 11.4 99680 48
2012-04-26 07:53:26 51°13.637 2°56.019 7.2 354 11.4 99680 48
2012-04-26 07:53:31 51°13.637 2°56.019 7.9 359 11.4 99680 48
2012-04-26 07:53:36 51°13.638 2°56.019 8.4 5 11.4 99680 47
2012-04-26 07:53:41 51°13.639 2°56.019 7 9 11.4 99680 47
2012-04-26 07:53:47 51°13.639 2°56.019 5.2 5 11.4 99680 48
2012-04-26 07:53:52 51°13.639 2°56.02 7.7 357 11.4 99680 48
2012-04-26 07:53:56 51°13.639 2°56.02 6.2 14 11.4 99680 47
2012-04-26 07:54:01 51°13.638 2°56.02 6 4 11.4 99680 47
2012-04-26 07:54:06 51°13.638 2°56.019 6.9 1 11.4 99680 46
2012-04-26 07:54:12 51°13.638 2°56.02 4.8 -999 11.4 99680 46
2012-04-26 07:54:17 51°13.639 2°56.02 5.4 6 11.4 99680 47
2012-04-26 07:54:22 51°13.639 2°56.02 4.9 11 11.4 99680 47
2012-04-26 07:54:27 51°13.639 2°56.02 4.5 355 11.4 99680 47
2012-04-26 07:54:32 51°13.639 2°56.02 3.8 358 11.4 99680 47
2012-04-26 07:54:37 51°13.639 2°56.019 3.4 355 11.4 99690 48
2012-04-26 07:54:41 51°13.638 2°56.019 5.5 359 11.4 99690 48
2012-04-26 07:54:46 51°13.637 2°56.019 6 351 11.4 99690 46
2012-04-26 07:54:51 51°13.638 2°56.019 6.6 282 11.4 99690 46
2012-04-26 07:54:57 51°13.637 2°56.019 6.2 353 11.4 99690 48
2012-04-26 07:55:02 51°13.637 2°56.019 9.7 352 11.4 99690 48
2012-04-26 07:55:07 51°13.637 2°56.019 7.8 4 11.4 99690 48
2012-04-26 07:55:12 51°13.637 2°56.019 8.6 356 11.4 99690 48
2012-04-26 07:55:17 51°13.637 2°56.019 6.6 6 11.4 99690 46
2012-04-26 07:55:21 51°13.637 2°56.019 10.7 352 11.4 99690 46
2012-04-26 07:55:26 51°13.637 2°56.019 7.1 10 11.4 99680 46
2012-04-26 07:55:31 51°13.637 2°56.019 5.7 359 11.4 99680 46
2012-04-26 07:55:37 51°13.636 2°56.019 5.9 351 11.4 99680 46
2012-04-26 07:55:42 51°13.636 2°56.019 3.9 19 11.4 99680 46
2012-04-26 07:55:47 51°13.636 2°56.018 3.8 5 11.4 99680 47
2012-04-26 07:55:52 51°13.636 2°56.018 6 7 11.4 99680 47
2012-04-26 07:55:57 51°13.636 2°56.018 6.1 353 11.4 99690 48
2012-04-26 07:56:02 51°13.636 2°56.018 6.7 359 11.4 99690 48
2012-04-26 07:56:06 51°13.636 2°56.018 6.6 3 11.4 99690 46
2012-04-26 07:56:12 51°13.636 2°56.018 5.6 -999 11.4 99690 46
2012-04-26 07:56:16 51°13.636 2°56.019 7.1 350 11.4 99690 46
2012-04-26 07:56:21 51°13.636 2°56.019 5.9 1 11.4 99690 46
2012-04-26 07:56:26 51°13.636 2°56.018 6.6 6 11.4 99690 47
2012-04-26 07:56:31 51°13.635 2°56.018 6.9 1 11.4 99690 47
2012-04-26 07:56:36 51°13.635 2°56.018 11.4 352 11.4 99690 48
2012-04-26 07:56:42 51°13.635 2°56.018 10 281 11.4 99690 48
2012-04-26 07:56:47 51°13.636 2°56.018 9.7 355 11.4 99700 47
2012-04-26 07:56:52 51°13.636 2°56.019 7.6 352 11.4 99700 47
2012-04-26 07:56:57 51°13.636 2°56.019 8.4 356 11.4 99690 46
2012-04-26 07:57:02 51°13.637 2°56.019 7.5 356 11.4 99690 46
2012-04-26 07:57:07 51°13.637 2°56.019 6.4 359 11.4 99680 47
2012-04-26 07:57:12 51°13.637 2°56.019 6.6 2 11.4 99680 47
2012-04-26 07:57:16 51°13.637 2°56.019 5.3 350 11.4 99690 47
2012-04-26 07:57:21 51°13.637 2°56.019 6.3 352 11.4 99690 47
2012-04-26 07:57:26 51°13.637 2°56.019 6.9 -999 11.4 99690 46
2012-04-26 07:57:32 51°13.637 2°56.019 5.7 5 11.4 99690 46
2012-04-26 07:57:36 51°13.637 2°56.019 5.3 355 11.4 99690 46
2012-04-26 07:57:41 51°13.636 2°56.019 5.8 357 11.4 99690 46
2012-04-26 07:57:47 51°13.636 2°56.019 5.4 10 11.4 99690 48
2012-04-26 07:57:51 51°13.636 2°56.019 4.8 279 11.4 99690 48
2012-04-26 07:57:56 51°13.636 2°56.019 3.8 8 11.4 99700 47
2012-04-26 07:58:01 51°13.636 2°56.018 4 1 11.4 99700 47
2012-04-26 07:58:07 51°13.635 2°56.018 4.7 17 11.4 99690 46
2012-04-26 07:58:11 51°13.635 2°56.018 4 -999 11.4 99690 46
2012-04-26 07:58:16 51°13.635 2°56.018 4.4 6 11.4 99700 48
2012-04-26 07:58:21 51°13.635 2°56.018 6.3 -999 11.4 99700 48
2012-04-26 07:58:26 51°13.635 2°56.018 5 10 11.4 99690 46
2012-04-26 07:58:32 51°13.635 2°56.018 6.8 -999 11.4 99690 46
2012-04-26 07:58:36 51°13.635 2°56.018 7.5 -999 11.4 99690 46
2012-04-26 07:58:41 51°13.635 2°56.018 7.9 3 11.4 99690 46
2012-04-26 07:58:46 51°13.635 2°56.018 5.4 2 11.4 99700 48
2012-04-26 07:58:51 51°13.635 2°56.018 6 359 11.4 99700 48
2012-04-26 07:58:56 51°13.635 2°56.018 8.6 1 11.4 99690 47
2012-04-26 07:59:01 51°13.635 2°56.018 7.2 17 11.4 99690 47
2012-04-26 07:59:07 51°13.635 2°56.018 7.2 360 11.4 99700 46
2012-04-26 07:59:12 51°13.636 2°56.018 6.4 2 11.4 99700 46
2012-04-26 07:59:17 51°13.636 2°56.018 7.3 9 11.4 99690 48
2012-04-26 07:59:22 51°13.636 2°56.018 7.3 2 11.4 99690 48
2012-04-26 07:59:26 51°13.636 2°56.018 7.6 346 11.4 99690 46
2012-04-26 07:59:31 51°13.636 2°56.018 6.3 357 11.4 99690 46
2012-04-26 07:59:37 51°13.636 2°56.018 7.1 356 11.4 99690 46
2012-04-26 07:59:41 51°13.636 2°56.018 7.3 354 11.4 99690 46
2012-04-26 07:59:47 51°13.636 2°56.018 7.1 358 11.4 99700 46
2012-04-26 07:59:52 51°13.637 2°56.018 7.2 2 11.4 99700 46
2012-04-26 07:59:57 51°13.637 2°56.018 7.7 353 11.4 99700 47
2012-04-26 08:00:01 51°13.637 2°56.018 8.1 2 11.4 99700 47
2012-04-26 08:00:07 51°13.637 2°56.018 8.4 13 11.4 99690 48
2012-04-26 08:00:12 51°13.637 2°56.018 7.6 -999 11.4 99690 48
2012-04-26 08:00:17 51°13.637 2°56.018 4.8 8 11.4 99690 46
2012-04-26 08:00:21 51°13.637 2°56.018 4.2 5 11.4 99690 46
2012-04-26 08:00:27 51°13.637 2°56.018 5.7 353 11.4 99700 47
2012-04-26 08:00:32 51°13.637 2°56.018 6.5 356 11.4 99700 47
2012-04-26 08:00:37 51°13.637 2°56.018 6.1 4 11.4 99690 45
2012-04-26 08:00:42 51°13.637 2°56.018 5.7 12 11.4 99690 45
2012-04-26 08:00:47 51°13.637 2°56.018 4.7 9 11.4 99700 46
2012-04-26 08:00:51 51°13.637 2°56.018 2.6 5 11.4 99700 46
2012-04-26 08:00:57 51°13.637 2°56.018 5 358 11.4 99700 48
2012-04-26 08:01:02 51°13.637 2°56.018 3 353 11.4 99700 48
2012-04-26 08:01:06 51°13.637 2°56.018 3.2 3 11.4 99700 48
2012-04-26 08:01:12 51°13.637 2°56.018 5.6 4 11.4 99700 48
2012-04-26 08:01:17 51°13.637 2°56.018 5.9 360 11.4 99700 47
2012-04-26 08:01:22 51°13.637 2°56.018 4.4 358 11.4 99700 47
2012-04-26 08:01:26 51°13.637 2°56.018 4 357 11.4 99700 48
2012-04-26 08:01:32 51°13.637 2°56.018 5.6 280 11.4 99700 48
2012-04-26 08:01:37 51°13.638 2°56.018 3.4 353 11.4 99700 47
2012-04-26 08:01:42 51°13.638 2°56.018 6.3 347 11.4 99700 47
2012-04-26 08:01:46 51°13.638 2°56.018 6.7 344 11.4 99700 48
2012-04-26 08:01:52 51°13.638 2°56.018 5.3 358 11.4 99700 48
2012-04-26 08:01:57 51°13.638 2°56.019 5.9 356 11.4 99700 47
2012-04-26 08:02:02 51°13.638 2°56.019 6 282 11.4 99700 47
2012-04-26 08:02:07 51°13.638 2°56.019 4.4 5 11.4 99700 46
2012-04-26 08:02:12 51°13.639 2°56.019 5.6 -999 11.4 99700 46
2012-04-26 08:02:17 51°13.639 2°56.019 5.3 357 11.4 99700 46
2012-04-26 08:02:22 51°13.639 2°56.019 4.4 351 11.4 99700 46
2012-04-26 08:02:27 51°13.639 2°56.019 6.7 2 11.4 99700 47
2012-04-26 08:02:32 51°13.639 2°56.019 7.6 14 11.4 99700 47
2012-04-26 08:02:37 51°13.639 2°56.019 6.6 354 11.5 99700 48
2012-04-26 08:02:42 51°13.639 2°56.019 6.9 348 11.5 99700 48
2012-04-26 08:02:46 51°13.639 2°56.019 7.4 356 11.4 99710 47
2012-04-26 08:02:52 51°13.64 2°56.019 7 5 11.4 99710 47
2012-04-26 08:02:56 51°13.64 2°56.019 5.2 5 11.5 99720 46
2012-04-26 08:03:01 51°13.64 2°56.019 6 354 11.5 99720 46
2012-04-26 08:03:07 51°13.64 2°56.019 5.7 352 11.4 99700 46
2012-04-26 08:03:11 51°13.64 2°56.019 5.5 278 11.4 99700 46
2012-04-26 08:03:16 51°13.64 2°56.019 6.4 354 11.4 99700 47
2012-04-26 08:03:21 51°13.64 2°56.019 7 347 11.4 99700 47
2012-04-26 08:03:26 51°13.64 2°56.019 5.3 6 11.4 99700 48
2012-04-26 08:03:31 51°13.639 2°56.019 6.6 356 11.4 99700 48
2012-04-26 08:03:36 51°13.639 2°56.019 6.1 358 11.4 99700 48
2012-04-26 08:03:41 51°13.639 2°56.019 7.2 347 11.4 99700 48
2012-04-26 08:03:46 51°13.639 2°56.019 4.9 355 11.5 99710 47
2012-04-26 08:03:52 51°13.639 2°56.019 6.6 283 11.5 99710 47
2012-04-26 08:03:56 51°13.639 2°56.019 5.4 345 11.4 99710 48
2012-04-26 08:04:01 51°13.639 2°56.019 7.4 351 11.4 99710 48
2012-04-26 08:04:07 51°13.639 2°56.019 5.8 8 11.4 99710 47
2012-04-26 08:04:12 51°13.639 2°56.019 5 -999 11.4 99710 47
2012-04-26 08:04:16 51°13.639 2°56.019 7.3 3 11.4 99700 48
2012-04-26 08:04:21 51°13.639 2°56.019 6.7 359 11.4 99700 48
2012-04-26 08:04:27 51°13.639 2°56.019 3.8 353 11.4 99700 46
2012-04-26 08:04:32 51°13.639 2°56.019 4 13 11.4 99700 46
2012-04-26 08:04:36 51°13.638 2°56.019 6.7 3 11.4 99710 48
2012-04-26 08:04:41 51°13.638 2°56.019 6.7 9 11.4 99710 48
2012-04-26 08:04:47 51°13.638 2°56.019 4.6 351 11.4 99710 46
2012-04-26 08:04:51 51°13.638 2°56.018 4.8 357 11.4 99710 46
2012-04-26 08:04:56 51°13.638 2°56.018 5.1 10 11.4 99710 48
2012-04-26 08:05:01 51°13.637 2°56.018 4.3 5 11.4 99710 48
2012-04-26 08:05:06 51°13.636 2°56.017 4.2 352 11.4 99710 46
2012-04-26 08:05:11 51°13.636 2°56.017 3.8 352 11.4 99710 46
2012-04-26 08:05:16 51°13.636 2°56.017 5 358 11.4 99710 47
2012-04-26 08:05:21 51°13.636 2°56.017 5.8 8 11.4 99710 47
2012-04-26 08:05:26 51°13.635 2°56.017 6 -999 11.4 99710 48
2012-04-26 08:05:32 51°13.635 2°56.017 6.1 279 11.4 99710 48
2012-04-26 08:05:37 51°13.635 2°56.017 6.3 356 11.4 99710 48
2012-04-26 08:05:41 51°13.635 2°56.017 6.2 354 11.4 99710 48
2012-04-26 08:05:47 51°13.635 2°56.017 7.5 355 11.4 99710 47
2012-04-26 08:05:51 51°13.635 2°56.017 5.5 359 11.4 99710 47
2012-04-26 08:05:56 51°13.635 2°56.017 6.9 358 11.4 99710 46
2012-04-26 08:06:01 51°13.635 2°56.017 5.3 1 11.4 99710 46
2012-04-26 08:06:06 51°13.635 2°56.017 5.8 358 11.4 99710 48
2012-04-26 08:06:11 51°13.635 2°56.017 5 -999 11.4 99710 48
2012-04-26 08:06:17 51°13.635 2°56.017 5.7 347 11.4 99710 47
2012-04-26 08:06:22 51°13.635 2°56.017 5.6 358 11.4 99710 47
2012-04-26 08:06:27 51°13.635 2°56.017 6 4 11.4 99710 48
2012-04-26 08:06:32 51°13.635 2°56.017 6.2 357 11.4 99710 48
2012-04-26 08:06:37 51°13.635 2°56.017 7 345 11.4 99710 48
2012-04-26 08:06:42 51°13.635 2°56.017 5.8 354 11.4 99710 48
2012-04-26 08:06:47 51°13.635 2°56.017 8.9 357 11.4 99710 48
2012-04-26 08:06:52 51°13.635 2°56.017 5.7 4 11.4 99710 48
2012-04-26 08:06:57 51°13.636 2°56.017 6.3 357 11.5 99710 48
2012-04-26 08:07:02 51°13.635 2°56.017 6.9 349 11.5 99710 48
2012-04-26 08:07:07 51°13.635 2°56.017 6.1 353 11.4 99710 47
2012-04-26 08:07:12 51°13.635 2°56.017 4.4 9 11.4 99710 47
2012-04-26 08:07:17 51°13.635 2°56.017 7.7 354 11.4 99710 47
2012-04-26 08:07:22 51°13.636 2°56.017 6.6 354 11.4 99710 47
2012-04-26 08:07:26 51°13.636 2°56.017 4.8 3 11.4 99710 48
2012-04-26 08:07:32 51°13.635 2°56.017 4 357 11.4 99710 48
2012-04-26 08:07:37 51°13.636 2°56.017 4.8 6 11.4 99710 48
2012-04-26 08:07:41 51°13.636 2°56.017 4.5 347 11.4 99710 48
2012-04-26 08:07:46 51°13.636 2°56.017 4.4 344 11.4 99710 47
2012-04-26 08:07:51 51°13.636 2°56.017 4.4 280 11.4 99710 47
2012-04-26 08:07:56 51°13.636 2°56.017 6.7 351 11.4 99710 47
2012-04-26 08:08:01 51°13.635 2°56.017 6.5 281 11.4 99710 47
2012-04-26 08:08:07 51°13.635 2°56.016 5.4 353 11.5 99720 48
2012-04-26 08:08:12 51°13.635 2°56.017 4.4 -999 11.5 99720 48
2012-04-26 08:08:17 51°13.636 2°56.017 4.6 18 11.5 99720 47
2012-04-26 08:08:22 51°13.636 2°56.017 4.1 359 11.5 99720 47
2012-04-26 08:08:27 51°13.635 2°56.017 6.3 352 11.5 99710 47
2012-04-26 08:08:32 51°13.635 2°56.017 7.2 355 11.5 99710 47
2012-04-26 08:08:36 51°13.635 2°56.017 5.2 360 11.5 99720 47
2012-04-26 08:08:41 51°13.636 2°56.017 5.7 37 11.5 99720 47
2012-04-26 08:08:47 51°13.636 2°56.017 5.3 34 11.5 99720 47
2012-04-26 08:08:52 51°13.636 2°56.017 7.6 12 11.5 99720 47
2012-04-26 08:08:56 51°13.636 2°56.017 4.9 1 11.5 99720 48
2012-04-26 08:09:01 51°13.635 2°56.017 5.4 10 11.5 99720 48
2012-04-26 08:09:07 51°13.636 2°56.017 5.5 9 11.5 99720 48
2012-04-26 08:09:11 51°13.636 2°56.017 5.6 359 11.5 99720 48
2012-04-26 08:09:16 51°13.636 2°56.017 6 357 11.5 99710 48
2012-04-26 08:09:21 51°13.636 2°56.017 6.6 351 11.5 99710 48
2012-04-26 08:09:27 51°13.636 2°56.017 7 6 11.5 99720 47
2012-04-26 08:09:31 51°13.636 2°56.017 10.6 1 11.5 99720 47
2012-04-26 08:09:37 51°13.636 2°56.017 8.1 359 11.5 99720 47
2012-04-26 08:09:42 51°13.636 2°56.017 6.6 3 11.5 99720 47
2012-04-26 08:09:47 51°13.636 2°56.017 6.4 356 11.5 99720 48
2012-04-26 08:09:51 51°13.636 2°56.017 5.8 3 11.5 99720 48
2012-04-26 08:09:57 51°13.636 2°56.017 6.7 359 11.5 99720 47
2012-04-26 08:10:02 51°13.636 2°56.017 6.2 7 11.5 99720 47
2012-04-26 08:10:06 51°13.636 2°56.018 5.1 8 11.5 99710 48
2012-04-26 08:10:12 51°13.636 2°56.018 6.5 15 11.5 99710 48
2012-04-26 08:10:17 51°13.636 2°56.018 4.2 356 11.5 99710 47
2012-04-26 08:10:21 51°13.636 2°56.018 7.5 1 11.5 99710 47
2012-04-26 08:10:26 51°13.636 2°56.018 4.5 17 11.5 99720 48
2012-04-26 08:10:31 51°13.636 2°56.017 7.4 357 11.5 99720 48
2012-04-26 08:10:36 51°13.636 2°56.018 7.8 355 11.5 99710 48
2012-04-26 08:10:41 51°13.636 2°56.018 7.3 351 11.5 99710 48
2012-04-26 08:10:46 51°13.636 2°56.017 6.7 355 11.5 99720 48
2012-04-26 08:10:51 51°13.636 2°56.017 7.1 358 11.5 99720 48
2012-04-26 08:10:57 51°13.636 2°56.017 7.4 349 11.5 99720 46
2012-04-26 08:11:02 51°13.636 2°56.018 6.5 356 11.5 99720 46
2012-04-26 08:11:07 51°13.637 2°56.018 7 352 11.5 99710 48
2012-04-26 08:11:12 51°13.636 2°56.018 6.4 356 11.5 99710 48
2012-04-26 08:11:16 51°13.636 2°56.018 5.9 356 11.5 99710 46
2012-04-26 08:11:22 51°13.636 2°56.018 5.3 9 11.5 99710 46
2012-04-26 08:11:27 51°13.636 2°56.018 4.4 16 11.5 99720 47
2012-04-26 08:11:32 51°13.636 2°56.018 5.2 3 11.5 99720 47
2012-04-26 08:11:36 51°13.636 2°56.018 6.3 348 11.5 99710 48
2012-04-26 08:11:42 51°13.636 2°56.018 5.4 280 11.5 99710 48
2012-04-26 08:11:47 51°13.635 2°56.018 6.8 352 11.5 99720 47
2012-04-26 08:11:51 51°13.636 2°56.018 5.5 7 11.5 99720 47
2012-04-26 08:11:56 51°13.636 2°56.018 3.6 356 11.5 99720 48
2012-04-26 08:12:02 51°13.636 2°56.018 4.3 355 11.5 99720 48
2012-04-26 08:12:07 51°13.636 2°56.018 6 354 11.5 99720 46
2012-04-26 08:12:12 51°13.636 2°56.018 6.5 349 11.5 99720 46
2012-04-26 08:12:17 51°13.636 2°56.018 6.3 358 11.5 99720 46
2012-04-26 08:12:22 51°13.636 2°56.018 6.9 356 11.5 99720 46
2012-04-26 08:12:27 51°13.636 2°56.018 8.8 355 11.6 99720 47
2012-04-26 08:12:32 51°13.636 2°56.018 7.1 1 11.6 99720 47
2012-04-26 08:12:37 51°13.636 2°56.018 2.3 4 11.6 99720 47
2012-04-26 08:12:42 51°13.635 2°56.018 0.2 3 11.6 99720 47
2012-04-26 08:12:47 51°13.636 2°56.017 0.1 357 11.5 99720 47
2012-04-26 08:12:52 51°13.636 2°56.017 0.1 350 11.5 99720 47
2012-04-26 08:12:57 51°13.636 2°56.017 -999 348 11.6 99720 47
2012-04-26 08:13:02 51°13.635 2°56.017 -999 282 11.6 99720 47
2012-04-26 08:13:07 51°13.635 2°56.017 1.6 355 11.6 99720 47
2012-04-26 08:13:12 51°13.635 2°56.017 7 1 11.6 99720 47
2012-04-26 08:13:16 51°13.635 2°56.017 8.7 355 11.6 99720 47
2012-04-26 08:13:22 51°13.635 2°56.017 5.6 -999 11.6 99720 47
2012-04-26 08:13:27 51°13.635 2°56.017 6.1 352 11.6 99720 46
2012-04-26 08:13:31 51°13.635 2°56.017 7 283 11.6 99720 46
2012-04-26 08:13:36 51°13.635 2°56.017 4.5 17 11.6 99720 46
2012-04-26 08:13:41 51°13.636 2°56.017 4.9 15 11.6 99720 46
2012-04-26 08:13:46 51°13.636 2°56.017 8.2 359 11.6 99720 46
2012-04-26 08:13:51 51°13.636 2°56.017 6.4 14 11.6 99720 46
2012-04-26 08:13:56 51°13.636 2°56.017 7.1 356 11.6 99720 45
2012-04-26 08:14:01 51°13.636 2°56.017 4.8 350 11.6 99720 45
2012-04-26 08:14:06 51°13.636 2°56.017 7.8 349 11.6 99720 47
2012-04-26 08:14:11 51°13.636 2°56.017 7.5 2 11.6 99720 47
2012-04-26 08:14:17 51°13.636 2°56.016 9.1 348 11.6 99720 46
2012-04-26 08:14:22 51°13.636 2°56.016 5.6 3 11.6 99720 46
2012-04-26 08:14:27 51°13.636 2°56.016 8.1 357 11.6 99730 46
2012-04-26 08:14:32 51°13.636 2°56.016 7.2 2 11.6 99730 46
2012-04-26 08:14:37 51°13.636 2°56.016 6.3 19 11.6 99730 46
2012-04-26 08:14:42 51°13.636 2°56.016 5.1 354 11.6 99730 46
2012-04-26 08:14:47 51°13.636 2°56.016 6.5 359 11.6 99720 46
2012-04-26 08:14:52 51°13.636 2°56.016 8.7 3 11.6 99720 46
2012-04-26 08:14:57 51°13.636 2°56.016 6.5 5 11.6 99720 47
2012-04-26 08:15:02 51°13.636 2°56.016 9.4 2 11.6 99720 47
2012-04-26 08:15:06 51°13.636 2°56.016 8.4 -999 11.6 99720 48
2012-04-26 08:15:12 51°13.636 2°56.016 6.1 -999 11.6 99720 48
2012-04-26 08:15:15 51°13.636 2°56.016 5.9 351 11.6 99720 48
2012-04-26 08:15:22 51°13.636 2°56.016 5.9 351 11.6 99720 48
2012-04-26 08:15:27 51°13.636 2°56.016 5.9 351 11.6 99720 48
2012-04-26 08:15:32 51°13.636 2°56.016 5.9 351 11.6 99720 48
2012-04-26 08:15:37 51°13.636 2°56.016 5.9 351 -999 -999 -999
2012-04-26 08:15:42 51°13.636 2°56.016 5.9 351 -999 -999 -999
2012-04-26 08:15:47 51°13.636 2°56.016 -999 -999 -999 -999 -999
2012-04-26 08:15:52 51°13.636 2°56.016 -999 -999 -999 -999 -999
2012-04-26 08:15:56 51°13.636 2°56.017 4.9 352 -999 -999 -999
2012-04-26 08:16:02 51°13.636 2°56.017 5.6 358 -999 -999 -999
2012-04-26 08:16:07 51°13.636 2°56.017 5.1 -999 -999 -999 -999
2012-04-26 08:16:12 51°13.636 2°56.017 6.5 353 -999 -999 -999
2012-04-26 08:16:17 51°13.636 2°56.017 6.7 354 11.6 -999 30
2012-04-26 08:16:22 51°13.636 2°56.017 6.1 356 11.6 -999 30
2012-04-26 08:16:26 51°13.636 2°56.017 5.8 352 11.6 -999 48
2012-04-26 08:16:32 51°13.636 2°56.017 6.6 6 11.6 -999 48
2012-04-26 08:16:37 51°13.636 2°56.017 6.4 2 11.6 99730 47
2012-04-26 08:16:42 51°13.636 2°56.017 6.4 14 11.6 99730 47
2012-04-26 08:16:47 51°13.636 2°56.017 5.1 18 11.6 99730 47
2012-04-26 08:16:52 51°13.636 2°56.017 4.8 278 11.6 99730 47
2012-04-26 08:16:57 51°13.636 2°56.017 5.3 357 11.6 99720 47
2012-04-26 08:17:01 51°13.636 2°56.017 7.8 353 11.6 99720 47
2012-04-26 08:17:07 51°13.636 2°56.017 9.4 358 11.6 99730 46
2012-04-26 08:17:12 51°13.636 2°56.017 9.6 352 11.6 99730 46
2012-04-26 08:17:17 51°13.637 2°56.017 8.2 4 11.6 99730 48
2012-04-26 08:17:21 51°13.636 2°56.017 7.6 7 11.6 99730 48
2012-04-26 08:17:27 51°13.636 2°56.017 6.2 11 11.6 99720 46
2012-04-26 08:17:32 51°13.636 2°56.017 4.8 280 11.6 99720 46
2012-04-26 08:17:37 51°13.636 2°56.016 7.6 352 11.6 99720 47
2012-04-26 08:17:42 51°13.637 2°56.016 6.6 349 11.6 99720 47
2012-04-26 08:17:47 51°13.637 2°56.016 6.4 358 11.6 99720 46
2012-04-26 08:17:52 51°13.637 2°56.016 6.7 359 11.6 99720 46
2012-04-26 08:17:57 51°13.637 2°56.016 8.4 342 11.6 99730 48
2012-04-26 08:18:02 51°13.637 2°56.016 9.8 280 11.6 99730 48
2012-04-26 08:18:06 51°13.637 2°56.016 7.7 2 11.6 99730 47
2012-04-26 08:18:12 51°13.637 2°56.016 5.9 357 11.6 99730 47
2012-04-26 08:18:17 51°13.637 2°56.016 8.3 359 11.6 99730 46
2012-04-26 08:18:21 51°13.636 2°56.016 8.1 7 11.6 99730 46
2012-04-26 08:18:27 51°13.637 2°56.016 10.7 355 11.6 99720 46
2012-04-26 08:18:32 51°13.637 2°56.016 9.7 356 11.6 99720 46
2012-04-26 08:18:36 51°13.637 2°56.016 7.3 355 11.6 99730 48
2012-04-26 08:18:41 51°13.637 2°56.016 6.3 356 11.6 99730 48
2012-04-26 08:18:46 51°13.637 2°56.016 4.4 359 11.6 99730 45
2012-04-26 08:18:52 51°13.637 2°56.016 6.6 283 11.6 99730 45
2012-04-26 08:18:57 51°13.637 2°56.016 8.5 355 11.6 99730 46
2012-04-26 08:19:01 51°13.637 2°56.016 7.3 279 11.6 99730 46
2012-04-26 08:19:06 51°13.637 2°56.016 7 355 11.6 99730 46
2012-04-26 08:19:11 51°13.637 2°56.016 7.9 283 11.6 99730 46
2012-04-26 08:19:16 51°13.636 2°56.016 6.7 3 11.6 99730 47
2012-04-26 08:19:21 51°13.637 2°56.016 5.6 -999 11.6 99730 47
2012-04-26 08:19:25 51°13.637 2°56.017 4.4 1 11.6 99720 46
2012-04-26 08:19:31 51°13.637 2°56.017 6.6 282 11.6 99720 46
2012-04-26 08:19:37 51°13.637 2°56.017 6.9 357 11.6 99730 46
2012-04-26 08:19:42 51°13.637 2°56.017 4.6 281 11.6 99730 46
2012-04-26 08:19:46 51°13.637 2°56.017 9 356 11.6 99730 48
2012-04-26 08:19:52 51°13.637 2°56.017 10.8 1 11.6 99730 48
2012-04-26 08:19:56 51°13.637 2°56.017 7.9 13 11.6 99730 46
2012-04-26 08:20:01 51°13.637 2°56.017 6.4 354 11.6 99730 46
2012-04-26 08:20:06 51°13.636 2°56.017 7.7 348 11.7 99730 47
2012-04-26 08:20:12 51°13.636 2°56.017 6.7 10 11.7 99730 47
2012-04-26 08:20:17 51°13.636 2°56.017 5.4 7 11.7 99720 46
2012-04-26 08:20:21 51°13.636 2°56.017 4.8 7 11.7 99720 46
2012-04-26 08:20:26 51°13.636 2°56.017 4.9 3 11.7 99730 48
2012-04-26 08:20:31 51°13.636 2°56.017 6.5 354 11.7 99730 48
2012-04-26 08:20:36 51°13.636 2°56.017 7.1 358 11.7 99740 47
2012-04-26 08:20:41 51°13.636 2°56.017 6.8 22 11.7 99740 47
2012-04-26 08:20:46 51°13.636 2°56.017 6.7 22 11.7 99740 46
2012-04-26 08:20:51 51°13.636 2°56.017 4.8 5 11.7 99740 46
2012-04-26 08:20:56 51°13.637 2°56.017 7.2 352 11.7 99730 47
2012-04-26 08:21:01 51°13.636 2°56.017 7.6 358 11.7 99730 47
2012-04-26 08:21:06 51°13.636 2°56.017 5.6 6 11.7 99740 48
2012-04-26 08:21:12 51°13.636 2°56.017 5.6 357 11.7 99740 48
2012-04-26 08:21:16 51°13.636 2°56.017 7.3 359 11.7 99730 47
2012-04-26 08:21:21 51°13.636 2°56.017 5.7 359 11.7 99730 47
2012-04-26 08:21:27 51°13.636 2°56.018 6.9 338 11.6 99730 45
2012-04-26 08:21:31 51°13.636 2°56.018 5.2 355 11.6 99730 45
2012-04-26 08:21:37 51°13.636 2°56.018 7 2 11.7 99730 47
2012-04-26 08:21:41 51°13.636 2°56.018 7.1 7 11.7 99730 47
2012-04-26 08:21:46 51°13.636 2°56.018 6.5 1 11.7 99730 48
2012-04-26 08:21:51 51°13.636 2°56.018 4.8 359 11.7 99730 48
2012-04-26 08:21:57 51°13.636 2°56.018 6.1 7 11.7 99740 46
2012-04-26 08:22:01 51°13.636 2°56.018 6 351 11.7 99740 46
2012-04-26 08:22:06 51°13.636 2°56.018 3.6 346 11.7 99730 46
2012-04-26 08:22:11 51°13.636 2°56.018 4.3 278 11.7 99730 46
2012-04-26 08:22:17 51°13.636 2°56.018 3.7 5 11.7 99740 47
2012-04-26 08:22:21 51°13.636 2°56.018 5 347 11.7 99740 47
2012-04-26 08:22:26 51°13.636 2°56.018 4.5 -999 11.7 99730 46
2012-04-26 08:22:32 51°13.636 2°56.018 5.9 2 11.7 99730 46
2012-04-26 08:22:36 51°13.636 2°56.018 5.7 354 11.7 99730 46
2012-04-26 08:22:41 51°13.636 2°56.018 6 278 11.7 99730 46
2012-04-26 08:22:47 51°13.636 2°56.018 6.2 347 11.7 99730 46
2012-04-26 08:22:51 51°13.636 2°56.018 6 349 11.7 99730 46
2012-04-26 08:22:56 51°13.636 2°56.018 5 10 11.7 99730 48
2012-04-26 08:23:02 51°13.636 2°56.018 6.2 348 11.7 99730 48
2012-04-26 08:23:07 51°13.636 2°56.018 6.7 356 11.7 99730 48
2012-04-26 08:23:12 51°13.635 2°56.018 6 5 11.7 99730 48
2012-04-26 08:23:17 51°13.635 2°56.018 5.8 353 11.7 99730 46
2012-04-26 08:23:22 51°13.635 2°56.018 3.6 352 11.7 99730 46
2012-04-26 08:23:27 51°13.635 2°56.018 7.7 340 11.7 99740 46
2012-04-26 08:23:32 51°13.635 2°56.018 6.8 353 11.7 99740 46
2012-04-26 08:23:37 51°13.635 2°56.018 5.6 8 11.7 99740 46
2012-04-26 08:23:42 51°13.635 2°56.018 5.1 359 11.7 99740 46
2012-04-26 08:23:47 51°13.635 2°56.019 6.3 358 11.7 99740 47
2012-04-26 08:23:51 51°13.634 2°56.019 6 350 11.7 99740 47
2012-04-26 08:23:57 51°13.632 2°56.021 6.6 345 11.7 99730 48
2012-04-26 08:24:02 51°13.631 2°56.021 8.2 353 11.7 99730 48
2012-04-26 08:24:07 51°13.63 2°56.022 7.7 328 11.7 99740 45
2012-04-26 08:24:11 51°13.63 2°56.023 6.8 359 11.7 99740 45
2012-04-26 08:24:16 51°13.629 2°56.023 6.6 349 11.7 99730 46
2012-04-26 08:24:22 51°13.629 2°56.022 7 12 11.7 99730 46
2012-04-26 08:24:27 51°13.63 2°56.022 4.3 -999 11.7 99740 46
2012-04-26 08:24:31 51°13.63 2°56.022 5.9 -999 11.7 99740 46
2012-04-26 08:24:36 51°13.63 2°56.022 6 343 11.7 99720 47
2012-04-26 08:24:41 51°13.631 2°56.022 6 352 11.7 99720 47
2012-04-26 08:24:46 51°13.631 2°56.022 5.3 352 11.7 99730 47
2012-04-26 08:24:51 51°13.631 2°56.021 4.2 357 11.7 99730 47
2012-04-26 08:24:55 51°13.631 2°56.021 5.4 355 11.7 99740 46
2012-04-26 08:25:01 51°13.631 2°56.021 3.2 279 11.7 99740 46
2012-04-26 08:25:06 51°13.631 2°56.021 6.7 356 11.7 99740 48
2012-04-26 08:25:11 51°13.632 2°56.021 9.4 355 11.7 99740 48
2012-04-26 08:25:16 51°13.632 2°56.021 8.8 346 11.7 99740 48
2012-04-26 08:25:21 51°13.632 2°56.021 5.7 8 11.7 99740 48
2012-04-26 08:25:26 51°13.632 2°56.021 6.8 343 11.7 99730 46
2012-04-26 08:25:31 51°13.632 2°56.021 8.3 353 11.7 99730 46
2012-04-26 08:25:36 51°13.632 2°56.021 7.2 13 11.7 99730 47
2012-04-26 08:25:42 51°13.632 2°56.021 5.9 355 11.7 99730 47
2012-04-26 08:25:47 51°13.633 2°56.021 7.6 352 11.7 99720 47
2012-04-26 08:25:52 51°13.633 2°56.021 9 13 11.7 99720 47
2012-04-26 08:25:56 51°13.633 2°56.021 7.3 12 11.6 99730 47
2012-04-26 08:26:02 51°13.633 2°56.021 5.4 8 11.6 99730 47
2012-04-26 08:26:07 51°13.633 2°56.021 6.3 12 11.7 99730 47
2012-04-26 08:26:12 51°13.633 2°56.021 4.6 14 11.7 99730 47
2012-04-26 08:26:16 51°13.634 2°56.021 4.6 13 11.6 99730 46
2012-04-26 08:26:22 51°13.634 2°56.021 3.7 359 11.6 99730 46
2012-04-26 08:26:27 51°13.634 2°56.02 6.7 348 11.7 99730 46
2012-04-26 08:26:32 51°13.634 2°56.02 4.2 2 11.7 99730 46
2012-04-26 08:26:36 51°13.634 2°56.02 7.4 16 11.7 99740 48
2012-04-26 08:26:42 51°13.634 2°56.02 5.8 6 11.7 99740 48
2012-04-26 08:26:47 51°13.634 2°56.02 6.8 12 11.7 99740 47
2012-04-26 08:26:52 51°13.634 2°56.02 5.5 12 11.7 99740 47
2012-04-26 08:26:56 51°13.634 2°56.02 4.9 356 11.7 99740 47
2012-04-26 08:27:02 51°13.634 2°56.02 4.6 352 11.7 99740 47
2012-04-26 08:27:07 51°13.635 2°56.02 4.9 341 11.7 99740 47
2012-04-26 08:27:12 51°13.635 2°56.02 7.4 352 11.7 99740 47
2012-04-26 08:27:16 51°13.635 2°56.02 3.9 1 11.7 99740 46
2012-04-26 08:27:21 51°13.635 2°56.02 6.7 351 11.7 99740 46
2012-04-26 08:27:27 51°13.635 2°56.02 7.3 9 11.7 99740 46
2012-04-26 08:27:32 51°13.635 2°56.02 6.1 1 11.7 99740 46
2012-04-26 08:27:36 51°13.635 2°56.02 7.3 10 11.7 99740 46
2012-04-26 08:27:41 51°13.635 2°56.02 7.7 6 11.7 99740 46
2012-04-26 08:27:46 51°13.635 2°56.02 4.9 2 11.7 99740 46
2012-04-26 08:27:52 51°13.635 2°56.02 6.3 3 11.7 99740 46
2012-04-26 08:27:56 51°13.635 2°56.02 7.5 -999 11.7 99740 47
2012-04-26 08:28:02 51°13.635 2°56.02 9.3 355 11.7 99740 47
2012-04-26 08:28:07 51°13.635 2°56.02 8.7 348 11.7 99740 48
2012-04-26 08:28:11 51°13.635 2°56.02 6.7 357 11.7 99740 48
2012-04-26 08:28:16 51°13.635 2°56.02 6.7 1 11.7 99740 47
2012-04-26 08:28:22 51°13.635 2°56.02 4.7 3 11.7 99740 47
2012-04-26 08:28:27 51°13.635 2°56.02 4.3 359 11.7 99730 46
2012-04-26 08:28:31 51°13.635 2°56.02 4.7 357 11.7 99730 46
2012-04-26 08:28:36 51°13.634 2°56.02 7.3 2 11.7 99740 47
2012-04-26 08:28:41 51°13.635 2°56.02 6.2 357 11.7 99740 47
2012-04-26 08:28:46 51°13.635 2°56.02 4.6 2 11.7 99740 46
2012-04-26 08:28:51 51°13.635 2°56.02 6.4 359 11.7 99740 46
2012-04-26 08:28:57 51°13.634 2°56.02 6.4 7 11.7 99740 47
2012-04-26 08:29:01 51°13.634 2°56.02 6.6 6 11.7 99740 47
2012-04-26 08:29:06 51°13.634 2°56.02 8 351 11.7 99740 48
2012-04-26 08:29:11 51°13.634 2°56.02 7.2 359 11.7 99740 48
2012-04-26 08:29:16 51°13.633 2°56.019 7.5 2 11.7 99740 47
2012-04-26 08:29:21 51°13.633 2°56.019 8.7 -999 11.7 99740 47
2012-04-26 08:29:26 51°13.633 2°56.019 9.7 360 11.7 99730 45
2012-04-26 08:29:31 51°13.633 2°56.019 7.7 359 11.7 99730 45
2012-04-26 08:29:37 51°13.632 2°56.019 8 8 11.7 99730 47
2012-04-26 08:29:41 51°13.632 2°56.019 6.3 7 11.7 99730 47
2012-04-26 08:29:46 51°13.632 2°56.019 6.1 9 11.7 99740 47
2012-04-26 08:29:51 51°13.632 2°56.019 7.8 11 11.7 99740 47
2012-04-26 08:29:56 51°13.632 2°56.019 7.6 15 11.7 99730 46
2012-04-26 08:30:01 51°13.632 2°56.019 8.7 20 11.7 99730 46
2012-04-26 08:30:06 51°13.632 2°56.019 6.4 24 11.7 99740 47
2012-04-26 08:30:11 51°13.632 2°56.019 6.9 44 11.7 99740 47
2012-04-26 08:30:16 51°13.633 2°56.019 5.3 23 11.7 99740 46
2012-04-26 08:30:21 51°13.632 2°56.019 5.1 17 11.7 99740 46
2012-04-26 08:30:26 51°13.632 2°56.019 3.1 8 11.7 99750 46
2012-04-26 08:30:31 51°13.632 2°56.019 6.3 353 11.7 99750 46
2012-04-26 08:30:36 51°13.632 2°56.018 6 348 11.7 99740 46
2012-04-26 08:30:41 51°13.633 2°56.018 5.4 -999 11.7 99740 46
2012-04-26 08:30:46 51°13.632 2°56.018 5 9 11.7 99750 47
2012-04-26 08:30:51 51°13.632 2°56.018 5.1 358 11.7 99750 47
2012-04-26 08:30:56 51°13.633 2°56.017 5.9 12 11.7 99740 47
2012-04-26 08:31:01 51°13.634 2°56.014 8.2 7 11.7 99740 47
2012-04-26 08:31:06 51°13.635 2°56.011 8.3 10 11.7 99740 47
2012-04-26 08:31:11 51°13.636 2°56.007 9.1 4 11.7 99740 47
2012-04-26 08:31:16 51°13.638 2°56.002 10.3 5 11.7 99740 47
2012-04-26 08:31:21 51°13.639 2°55.997 8.7 13 11.7 99740 47
2012-04-26 08:31:26 51°13.641 2°55.991 6.3 12 11.7 99750 47
2012-04-26 08:31:31 51°13.642 2°55.984 6.7 8 11.7 99750 47
2012-04-26 08:31:37 51°13.644 2°55.977 5.3 27 11.7 99740 47
2012-04-26 08:31:42 51°13.646 2°55.971 9 23 11.7 99740 47
2012-04-26 08:31:46 51°13.647 2°55.966 8 22 11.7 99740 47
2012-04-26 08:31:52 51°13.648 2°55.96 8.4 8 11.7 99740 47
2012-04-26 08:31:57 51°13.649 2°55.957 6.8 16 11.7 99750 47
2012-04-26 08:32:02 51°13.65 2°55.955 5.4 10 11.7 99750 47
2012-04-26 08:32:06 51°13.65 2°55.955 5.9 7 11.7 99760 46
2012-04-26 08:32:12 51°13.651 2°55.955 4.1 19 11.7 99760 46
2012-04-26 08:32:17 51°13.652 2°55.953 5.6 3 11.7 99740 47
2012-04-26 08:32:22 51°13.653 2°55.951 5.3 2 11.7 99740 47
2012-04-26 08:32:26 51°13.653 2°55.949 5.6 18 11.7 99750 45
2012-04-26 08:32:32 51°13.655 2°55.944 7.1 15 11.7 99750 45
2012-04-26 08:32:37 51°13.656 2°55.939 6.4 25 11.7 99750 47
2012-04-26 08:32:42 51°13.657 2°55.935 5 24 11.7 99750 47
2012-04-26 08:32:46 51°13.657 2°55.931 5 14 11.7 99750 46
2012-04-26 08:32:52 51°13.658 2°55.928 3.9 9 11.7 99750 46
2012-04-26 08:32:56 51°13.658 2°55.927 6 5 11.7 99740 46
2012-04-26 08:33:02 51°13.658 2°55.927 5.5 3 11.7 99740 46
2012-04-26 08:33:07 51°13.659 2°55.928 4.6 23 11.7 99750 47
2012-04-26 08:33:11 51°13.659 2°55.929 4.1 16 11.7 99750 47
2012-04-26 08:33:17 51°13.659 2°55.929 3.6 16 11.7 99750 47
2012-04-26 08:33:22 51°13.659 2°55.929 8 14 11.7 99750 47
2012-04-26 08:33:27 51°13.66 2°55.928 4.9 32 11.7 99750 45
2012-04-26 08:33:31 51°13.661 2°55.926 4.7 18 11.7 99750 45
2012-04-26 08:33:37 51°13.662 2°55.922 4.5 20 11.7 99750 47
2012-04-26 08:33:42 51°13.664 2°55.917 5.3 23 11.7 99750 47
2012-04-26 08:33:47 51°13.665 2°55.912 3 6 11.7 99750 46
2012-04-26 08:33:51 51°13.667 2°55.907 4.1 18 11.7 99750 46
2012-04-26 08:33:57 51°13.669 2°55.899 3.3 38 11.7 99750 45
2012-04-26 08:34:02 51°13.671 2°55.892 3.5 26 11.7 99750 45
2012-04-26 08:34:07 51°13.673 2°55.884 3.2 30 11.7 99760 45
2012-04-26 08:34:11 51°13.675 2°55.878 3.4 22 11.7 99760 45
2012-04-26 08:34:17 51°13.677 2°55.869 4.1 24 11.7 99760 45
2012-04-26 08:34:22 51°13.68 2°55.862 4.3 16 11.7 99760 45
2012-04-26 08:34:27 51°13.682 2°55.855 6.6 26 11.7 99760 47
2012-04-26 08:34:31 51°13.683 2°55.849 5.1 16 11.7 99760 47
2012-04-26 08:34:36 51°13.686 2°55.842 6 21 11.7 99760 47
2012-04-26 08:34:42 51°13.689 2°55.833 6.1 21 11.7 99760 47
2012-04-26 08:34:46 51°13.691 2°55.827 4.5 8 11.7 99760 46
2012-04-26 08:34:51 51°13.693 2°55.819 4.6 23 11.7 99760 46
2012-04-26 08:34:57 51°13.696 2°55.81 2.2 28 11.7 99750 46
2012-04-26 08:35:02 51°13.698 2°55.803 3.1 36 11.7 99750 46
2012-04-26 08:35:07 51°13.7 2°55.796 5.4 34 11.7 99750 45
2012-04-26 08:35:11 51°13.702 2°55.791 4.4 35 11.7 99750 45
2012-04-26 08:35:17 51°13.704 2°55.782 8.1 25 11.7 99750 47
2012-04-26 08:35:22 51°13.706 2°55.775 10 21 11.7 99750 47
2012-04-26 08:35:27 51°13.708 2°55.768 6.5 23 11.7 99750 46
2012-04-26 08:35:31 51°13.709 2°55.762 6.2 26 11.7 99750 46
2012-04-26 08:35:36 51°13.71 2°55.755 6.1 16 11.7 99760 46
2012-04-26 08:35:42 51°13.712 2°55.747 6.5 21 11.7 99760 46
2012-04-26 08:35:47 51°13.713 2°55.74 6.4 19 11.7 99750 46
2012-04-26 08:35:51 51°13.713 2°55.736 5.9 19 11.7 99750 46
2012-04-26 08:35:56 51°13.714 2°55.729 6.3 14 11.7 99760 47
2012-04-26 08:36:01 51°13.715 2°55.724 5.3 30 11.7 99760 47
2012-04-26 08:36:07 51°13.715 2°55.718 4.6 36 11.7 99750 47
2012-04-26 08:36:11 51°13.716 2°55.715 3.9 23 11.7 99750 47
2012-04-26 08:36:16 51°13.716 2°55.713 2.3 25 11.7 99760 47
2012-04-26 08:36:22 51°13.717 2°55.712 2.7 37 11.7 99760 47
2012-04-26 08:36:26 51°13.717 2°55.712 4.7 39 11.7 99750 46
2012-04-26 08:36:31 51°13.718 2°55.711 3.4 32 11.7 99750 46
2012-04-26 08:36:36 51°13.719 2°55.712 1.5 44 11.7 99760 45
2012-04-26 08:36:41 51°13.721 2°55.712 3 39 11.7 99760 45
2012-04-26 08:36:46 51°13.723 2°55.713 3.7 22 11.7 99760 46
2012-04-26 08:36:51 51°13.725 2°55.715 2.1 76 11.7 99760 46
2012-04-26 08:36:56 51°13.728 2°55.716 0.5 30 11.7 99760 46
2012-04-26 08:37:02 51°13.73 2°55.717 1.8 79 11.7 99760 46
2012-04-26 08:37:07 51°13.731 2°55.717 9.6 25 11.7 99770 47
2012-04-26 08:37:11 51°13.732 2°55.717 6.7 76 11.7 99770 47
2012-04-26 08:37:16 51°13.732 2°55.717 6 27 11.7 99760 48
2012-04-26 08:37:22 51°13.731 2°55.716 5.8 80 11.7 99760 48
2012-04-26 08:37:26 51°13.73 2°55.715 6.3 20 11.7 99760 45
2012-04-26 08:37:31 51°13.729 2°55.714 6.1 75 11.7 99760 45
2012-04-26 08:37:36 51°13.726 2°55.713 8 22 11.8 99780 46
2012-04-26 08:37:42 51°13.723 2°55.712 8.8 74 11.8 99780 46
2012-04-26 08:37:47 51°13.72 2°55.711 9.3 24 11.8 99770 47
2012-04-26 08:37:51 51°13.718 2°55.711 8.2 78 11.8 99770 47
2012-04-26 08:37:56 51°13.715 2°55.711 5.7 20 11.8 99770 47
2012-04-26 08:38:01 51°13.714 2°55.711 4.1 82 11.8 99770 47
2012-04-26 08:38:07 51°13.714 2°55.71 5.2 27 11.8 99780 46
2012-04-26 08:38:11 51°13.715 2°55.71 5.9 77 11.8 99780 46
2012-04-26 08:38:16 51°13.716 2°55.709 5.3 19 11.8 99790 47
2012-04-26 08:38:22 51°13.72 2°55.706 4.3 73 11.8 99790 47
2012-04-26 08:38:27 51°13.724 2°55.704 3.5 24 11.8 99770 45
2012-04-26 08:38:31 51°13.728 2°55.701 3.3 80 11.8 99770 45
2012-04-26 08:38:36 51°13.734 2°55.697 1.8 28 11.9 99770 45
2012-04-26 08:38:41 51°13.74 2°55.692 4 84 11.9 99770 45
2012-04-26 08:38:47 51°13.749 2°55.686 3.5 268 11.9 99770 47
2012-04-26 08:38:51 51°13.756 2°55.681 4.4 16 11.9 99770 47
2012-04-26 08:38:56 51°13.765 2°55.675 4.1 270 11.9 99770 46
2012-04-26 08:39:02 51°13.776 2°55.666 3.8 280 11.9 99770 46
2012-04-26 08:39:06 51°13.784 2°55.661 2.8 19 11.9 99770 46
2012-04-26 08:39:11 51°13.794 2°55.654 2.5 84 11.9 99770 46
2012-04-26 08:39:17 51°13.806 2°55.646 4.2 23 11.9 99770 47
2012-04-26 08:39:22 51°13.817 2°55.639 4.3 81 11.9 99770 47
2012-04-26 08:39:27 51°13.828 2°55.632 2.8 22 11.9 99770 47
2012-04-26 08:39:31 51°13.837 2°55.626 3.1 284 11.9 99770 47
2012-04-26 08:39:36 51°13.848 2°55.618 4.6 267 11.9 99760 46
2012-04-26 08:39:42 51°13.863 2°55.609 5.1 279 11.9 99760 46
2012-04-26 08:39:47 51°13.874 2°55.601 3.6 28 11.9 99770 47
2012-04-26 08:39:51 51°13.884 2°55.594 1.8 285 11.9 99770 47
2012-04-26 08:39:56 51°13.896 2°55.586 4.5 260 11.9 99770 45
2012-04-26 08:40:02 51°13.91 2°55.576 5.6 284 11.9 99770 45
2012-04-26 08:40:07 51°13.923 2°55.568 3.5 17 11.9 99770 46
2012-04-26 08:40:11 51°13.932 2°55.561 3.2 76 11.9 99770 46
2012-04-26 08:40:16 51°13.944 2°55.552 3.6 23 11.9 99770 44
2012-04-26 08:40:22 51°13.958 2°55.542 3.4 79 11.9 99770 44
2012-04-26 08:40:27 51°13.97 2°55.533 4.9 267 11.9 99770 47
2012-04-26 08:40:31 51°13.98 2°55.527 3.7 283 11.9 99770 47
2012-04-26 08:40:36 51°13.992 2°55.518 3.7 262 11.9 99760 45
2012-04-26 08:40:41 51°14.004 2°55.509 3.5 285 11.9 99760 45
2012-04-26 08:40:47 51°14.019 2°55.499 2.6 24 11.9 99760 46
2012-04-26 08:40:51 51°14.028 2°55.492 5.3 82 11.9 99760 46
2012-04-26 08:40:56 51°14.04 2°55.483 4.9 21 11.9 99770 46
2012-04-26 08:41:01 51°14.052 2°55.474 3.4 76 11.9 99770 46
2012-04-26 08:41:06 51°14.064 2°55.464 3.3 28 11.9 99760 44
2012-04-26 08:41:11 51°14.077 2°55.454 4.1 80 11.9 99760 44
2012-04-26 08:41:16 51°14.089 2°55.445 4.1 22 11.9 99770 47
2012-04-26 08:41:21 51°14.101 2°55.435 3.1 76 11.9 99770 47
2012-04-26 08:41:26 51°14.114 2°55.425 2 266 11.9 99770 47
2012-04-26 08:41:31 51°14.126 2°55.415 1.6 284 11.9 99770 47
2012-04-26 08:41:36 51°14.138 2°55.405 1.8 24 11.9 99770 45
2012-04-26 08:41:42 51°14.153 2°55.392 2.2 76 11.9 99770 45
2012-04-26 08:41:46 51°14.163 2°55.384 2.9 28 11.9 99770 45
2012-04-26 08:41:51 51°14.176 2°55.373 2.9 84 11.9 99770 45
2012-04-26 08:41:56 51°14.188 2°55.362 1.5 258 11.9 99770 45
2012-04-26 08:42:02 51°14.204 2°55.349 2.9 287 11.9 99770 45
2012-04-26 08:42:07 51°14.216 2°55.338 3.1 21 11.9 99770 47
2012-04-26 08:42:12 51°14.229 2°55.327 1.7 286 11.9 99770 47
2012-04-26 08:42:16 51°14.24 2°55.318 4 22 11.9 99770 45
2012-04-26 08:42:22 51°14.255 2°55.304 2.9 285 11.9 99770 45
2012-04-26 08:42:27 51°14.267 2°55.292 2 264 11.9 99770 47
2012-04-26 08:42:32 51°14.28 2°55.28 0.7 280 11.9 99770 47
2012-04-26 08:42:36 51°14.29 2°55.27 2.9 255 11.9 99770 45
2012-04-26 08:42:42 51°14.306 2°55.256 3.5 84 11.9 99770 45
2012-04-26 08:42:47 51°14.319 2°55.243 5 267 11.9 99770 44
2012-04-26 08:42:52 51°14.333 2°55.231 5.5 284 11.9 99770 44
2012-04-26 08:42:56 51°14.343 2°55.22 3.3 255 11.9 99770 45
2012-04-26 08:43:01 51°14.357 2°55.208 4.6 278 11.9 99770 45
2012-04-26 08:43:07 51°14.373 2°55.192 5.8 250 11.9 99770 45
2012-04-26 08:43:12 51°14.387 2°55.18 5.9 285 11.9 99770 45
2012-04-26 08:43:16 51°14.398 2°55.17 4.2 26 11.9 99770 45
2012-04-26 08:43:21 51°14.412 2°55.157 5.3 282 11.9 99770 45
2012-04-26 08:43:27 51°14.429 2°55.143 3.1 266 11.9 99770 47
2012-04-26 08:43:32 51°14.443 2°55.13 3 289 11.9 99770 47
2012-04-26 08:43:36 51°14.454 2°55.12 7.8 21 11.9 99770 45
2012-04-26 08:43:41 51°14.468 2°55.107 5.4 284 11.9 99770 45
2012-04-26 08:43:47 51°14.485 2°55.092 5.2 21 12 99760 46
2012-04-26 08:43:52 51°14.499 2°55.08 6.8 285 12 99760 46
2012-04-26 08:43:56 51°14.51 2°55.069 7.1 256 12 99770 46
2012-04-26 08:44:01 51°14.523 2°55.055 8.7 281 12 99770 46
2012-04-26 08:44:06 51°14.537 2°55.04 9.2 261 12 99770 45
2012-04-26 08:44:11 51°14.55 2°55.025 8.2 286 12 99770 45
2012-04-26 08:44:16 51°14.563 2°55.009 9.2 258 12 99770 45
2012-04-26 08:44:20 51°14.573 2°54.996 9.5 283 12 99770 45
2012-04-26 08:44:25 51°14.586 2°54.98 7.2 257 12 99760 45
2012-04-26 08:44:30 51°14.599 2°54.963 6.1 280 12 99760 45
2012-04-26 08:44:35 51°14.611 2°54.946 8.1 250 12 99770 46
2012-04-26 08:44:40 51°14.624 2°54.928 11.6 284 12 99770 46
2012-04-26 08:44:44 51°14.633 2°54.914 10.6 253 12 99770 45
2012-04-26 08:44:49 51°14.645 2°54.895 11.6 283 12 99770 45
2012-04-26 08:44:54 51°14.656 2°54.875 9.5 251 11.9 99760 45
2012-04-26 08:44:59 51°14.666 2°54.854 10.3 284 11.9 99760 45
2012-04-26 08:45:04 51°14.675 2°54.831 10.7 255 11.9 99740 46
2012-04-26 08:45:09 51°14.684 2°54.808 11.1 282 11.9 99740 46
2012-04-26 08:45:14 51°14.691 2°54.784 6.4 248 12 99740 46
2012-04-26 08:45:19 51°14.698 2°54.759 15.4 282 12 99740 46
2012-04-26 08:45:24 51°14.703 2°54.734 7.4 25 11.9 99760 45
2012-04-26 08:45:28 51°14.706 2°54.713 8 281 11.9 99760 45
2012-04-26 08:45:33 51°14.708 2°54.686 3.2 19 11.9 99740 46
2012-04-26 08:45:38 51°14.709 2°54.66 4.4 281 11.9 99740 46
2012-04-26 08:45:43 51°14.708 2°54.633 12.4 234 11.9 99740 46
2012-04-26 08:45:48 51°14.705 2°54.607 8.2 281 11.9 99740 46
2012-04-26 08:45:52 51°14.703 2°54.586 5.7 24 11.9 99720 46
2012-04-26 08:45:58 51°14.697 2°54.555 16.1 285 11.9 99720 46
2012-04-26 08:46:03 51°14.69 2°54.531 15.5 20 11.9 99720 45
2012-04-26 08:46:08 51°14.683 2°54.507 13.7 278 11.9 99720 45
2012-04-26 08:46:13 51°14.675 2°54.483 11.4 316 11.9 99710 46
2012-04-26 08:46:18 51°14.665 2°54.461 11.3 283 11.9 99710 46
2012-04-26 08:46:23 51°14.655 2°54.439 11 316 11.9 99710 47
2012-04-26 08:46:28 51°14.645 2°54.417 15.8 284 11.9 99710 47
2012-04-26 08:46:32 51°14.637 2°54.399 4 320 11.9 99720 45
2012-04-26 08:46:38 51°14.624 2°54.373 8.5 281 11.9 99720 45
2012-04-26 08:46:43 51°14.613 2°54.351 15.5 317 12 99720 47
2012-04-26 08:46:48 51°14.602 2°54.33 7.6 281 12 99720 47
2012-04-26 08:46:53 51°14.591 2°54.309 4.4 320 11.9 99720 46
2012-04-26 08:46:58 51°14.58 2°54.287 14.5 282 11.9 99720 46
2012-04-26 08:47:03 51°14.568 2°54.266 3.3 321 11.9 99700 47
2012-04-26 08:47:08 51°14.557 2°54.244 4.2 282 11.9 99700 47
2012-04-26 08:47:13 51°14.546 2°54.223 21.5 320 11.9 99710 46
2012-04-26 08:47:18 51°14.535 2°54.201 2.6 281 11.9 99710 46
2012-04-26 08:47:23 51°14.524 2°54.18 2.3 317 11.9 99710 46
2012-04-26 08:47:28 51°14.513 2°54.158 9.5 285 11.9 99710 46
2012-04-26 08:47:33 51°14.502 2°54.137 4.3 318 11.9 99690 46
2012-04-26 08:47:38 51°14.491 2°54.116 5 283 11.9 99690 46
2012-04-26 08:47:43 51°14.48 2°54.094 2.2 318 11.9 99690 46
2012-04-26 08:47:48 51°14.469 2°54.073 7.6 281 11.9 99690 46
2012-04-26 08:47:52 51°14.459 2°54.057 0.9 320 11.9 99680 46
2012-04-26 08:47:58 51°14.445 2°54.032 4.9 284 11.9 99680 46
2012-04-26 08:48:03 51°14.433 2°54.012 2.5 321 11.9 99700 45
2012-04-26 08:48:08 51°14.421 2°53.992 1.1 282 11.9 99700 45
2012-04-26 08:48:13 51°14.409 2°53.973 4.4 317 11.9 99680 46
2012-04-26 08:48:18 51°14.397 2°53.953 2.5 286 11.9 99680 46
2012-04-26 08:48:23 51°14.384 2°53.934 17.2 320 11.9 99680 46
2012-04-26 08:48:28 51°14.373 2°53.914 2.6 281 11.9 99680 46
2012-04-26 08:48:33 51°14.361 2°53.894 8.5 316 11.9 99690 47
2012-04-26 08:48:38 51°14.349 2°53.874 14.1 281 11.9 99690 47
2012-04-26 08:48:43 51°14.337 2°53.853 6.8 320 11.9 99680 47
2012-04-26 08:48:48 51°14.326 2°53.832 1.2 282 11.9 99680 47
2012-04-26 08:48:53 51°14.314 2°53.812 8.4 321 11.9 99700 47
2012-04-26 08:48:58 51°14.302 2°53.793 1.3 282 11.9 99700 47
2012-04-26 08:49:03 51°14.29 2°53.773 1.7 315 11.9 99710 46
2012-04-26 08:49:08 51°14.278 2°53.753 5.7 282 11.9 99710 46
2012-04-26 08:49:12 51°14.268 2°53.737 2.2 315 11.9 99710 46
2012-04-26 08:49:18 51°14.254 2°53.714 2.8 282 11.9 99710 46
2012-04-26 08:49:23 51°14.242 2°53.694 8.2 24 11.8 99700 46
2012-04-26 08:49:28 51°14.231 2°53.673 2.9 281 11.8 99700 46
2012-04-26 08:49:33 51°14.22 2°53.652 4.2 317 11.8 99680 46
2012-04-26 08:49:38 51°14.208 2°53.631 9 282 11.8 99680 46
2012-04-26 08:49:43 51°14.198 2°53.61 2.6 23 11.8 99700 46
2012-04-26 08:49:48 51°14.186 2°53.588 5.9 283 11.8 99700 46
2012-04-26 08:49:52 51°14.178 2°53.571 4.4 319 11.8 99700 46
2012-04-26 08:49:58 51°14.165 2°53.545 16.9 282 11.8 99700 46
2012-04-26 08:50:03 51°14.154 2°53.523 13.3 322 11.8 99690 46
2012-04-26 08:50:08 51°14.143 2°53.501 5 284 11.8 99690 46
2012-04-26 08:50:12 51°14.134 2°53.484 7.1 317 11.8 99700 46
2012-04-26 08:50:18 51°14.121 2°53.457 17.6 282 11.8 99700 46
2012-04-26 08:50:23 51°14.11 2°53.435 1.2 318 11.8 99700 47
2012-04-26 08:50:28 51°14.1 2°53.412 8.4 282 11.8 99700 47
2012-04-26 08:50:33 51°14.09 2°53.39 2.5 316 11.8 99720 47
2012-04-26 08:50:38 51°14.079 2°53.367 1.9 283 11.8 99720 47
2012-04-26 08:50:43 51°14.069 2°53.344 8.7 319 11.8 99710 46
2012-04-26 08:50:48 51°14.059 2°53.321 1.2 281 11.8 99710 46
2012-04-26 08:50:53 51°14.049 2°53.298 0.4 24 11.8 99690 47
2012-04-26 08:50:58 51°14.04 2°53.275 0.6 281 11.8 99690 47
2012-04-26 08:51:03 51°14.03 2°53.251 4.1 24 11.8 99720 46
2012-04-26 08:51:08 51°14.021 2°53.227 7.9 282 11.8 99720 46
2012-04-26 08:51:13 51°14.011 2°53.204 8.7 22 11.7 99710 46
2012-04-26 08:51:18 51°14.002 2°53.181 1.4 282 11.7 99710 46
2012-04-26 08:51:23 51°13.992 2°53.157 1.2 24 11.8 99700 46
2012-04-26 08:51:28 51°13.983 2°53.133 1.9 282 11.8 99700 46
2012-04-26 08:51:33 51°13.974 2°53.108 8.5 34 11.7 99720 46
2012-04-26 08:51:38 51°13.966 2°53.083 14.1 285 11.7 99720 46
2012-04-26 08:51:43 51°13.957 2°53.059 15.2 315 11.7 99760 46
2012-04-26 08:51:48 51°13.948 2°53.034 7.9 281 11.7 99760 46
2012-04-26 08:51:52 51°13.941 2°53.015 8.5 26 11.7 99740 46
2012-04-26 08:51:58 51°13.93 2°52.986 7.8 282 11.7 99740 46
2012-04-26 08:52:03 51°13.921 2°52.961 2.3 21 11.8 99760 46
2012-04-26 08:52:08 51°13.913 2°52.937 5.3 283 11.8 99760 46
2012-04-26 08:52:13 51°13.904 2°52.912 7.6 316 11.7 99740 47
2012-04-26 08:52:18 51°13.895 2°52.887 15.7 281 11.7 99740 47
2012-04-26 08:52:23 51°13.886 2°52.863 8.3 35 11.7 99750 47
2012-04-26 08:52:28 51°13.877 2°52.839 4 282 11.7 99750 47
2012-04-26 08:52:33 51°13.868 2°52.815 5.4 36 11.7 99740 46
2012-04-26 08:52:38 51°13.859 2°52.79 8.3 281 11.7 99740 46
2012-04-26 08:52:43 51°13.85 2°52.766 4.4 31 11.7 99750 47
2012-04-26 08:52:48 51°13.841 2°52.742 2.2 282 11.7 99750 47
2012-04-26 08:52:53 51°13.831 2°52.718 14.7 24 11.7 99740 47
2012-04-26 08:52:58 51°13.822 2°52.694 8.2 283 11.7 99740 47
2012-04-26 08:53:03 51°13.813 2°52.67 3.3 25 11.7 99740 47
2012-04-26 08:53:08 51°13.803 2°52.646 17.9 282 11.7 99740 47
2012-04-26 08:53:13 51°13.794 2°52.622 4.3 24 11.7 99750 47
2012-04-26 08:53:18 51°13.785 2°52.598 3.1 283 11.7 99750 47
2012-04-26 08:53:23 51°13.775 2°52.574 18.6 316 11.7 99740 45
2012-04-26 08:53:28 51°13.766 2°52.55 1.2 282 11.7 99740 45
2012-04-26 08:53:32 51°13.758 2°52.532 16.1 316 11.7 99750 47
2012-04-26 08:53:38 51°13.746 2°52.503 2.6 281 11.7 99750 47
2012-04-26 08:53:43 51°13.736 2°52.48 3.9 318 11.7 99740 47
2012-04-26 08:53:48 51°13.726 2°52.457 8.2 281 11.7 99740 47
2012-04-26 08:53:52 51°13.718 2°52.439 8.5 315 11.7 99740 47
2012-04-26 08:53:58 51°13.706 2°52.411 4.4 280 11.7 99740 47
2012-04-26 08:54:03 51°13.696 2°52.387 4.4 24 11.7 99750 46
2012-04-26 08:54:08 51°13.687 2°52.363 9 281 11.7 99750 46
2012-04-26 08:54:13 51°13.677 2°52.34 8.9 35 11.7 99750 47
2012-04-26 08:54:18 51°13.668 2°52.316 16.7 284 11.7 99750 47
2012-04-26 08:54:23 51°13.658 2°52.292 7.2 33 11.7 99750 47
2012-04-26 08:54:28 51°13.649 2°52.268 8.7 284 11.7 99750 47
2012-04-26 08:54:33 51°13.64 2°52.244 3.3 35 11.7 99750 48
2012-04-26 08:54:38 51°13.63 2°52.22 4.5 284 11.7 99750 48
2012-04-26 08:54:43 51°13.62 2°52.196 4.4 316 11.7 99750 47
2012-04-26 08:54:48 51°13.611 2°52.172 1.2 282 11.7 99750 47
2012-04-26 08:54:52 51°13.604 2°52.153 4.2 25 11.7 99740 48
2012-04-26 08:54:58 51°13.592 2°52.124 4.4 282 11.7 99740 48
2012-04-26 08:55:03 51°13.583 2°52.101 1.5 25 11.7 99750 47
2012-04-26 08:55:08 51°13.573 2°52.077 0.4 282 11.7 99750 47
2012-04-26 08:55:12 51°13.565 2°52.059 0.5 316 11.6 99750 47
2012-04-26 08:55:18 51°13.554 2°52.031 8.8 282 11.6 99750 47
2012-04-26 08:55:23 51°13.544 2°52.007 0.4 23 11.7 99750 47
2012-04-26 08:55:28 51°13.535 2°51.983 6.9 281 11.7 99750 47
2012-04-26 08:55:33 51°13.526 2°51.959 0.6 316 11.6 99740 47
2012-04-26 08:55:38 51°13.516 2°51.936 3.6 282 11.6 99740 47
2012-04-26 08:55:43 51°13.507 2°51.912 8.2 35 11.6 99740 47
2012-04-26 08:55:48 51°13.497 2°51.889 4.2 282 11.6 99740 47
2012-04-26 08:55:52 51°13.489 2°51.87 0.7 24 11.6 99740 47
2012-04-26 08:55:58 51°13.478 2°51.842 4.6 282 11.6 99740 47
2012-04-26 08:56:03 51°13.468 2°51.819 2.6 25 11.6 99750 46
2012-04-26 08:56:08 51°13.459 2°51.796 1.8 282 11.6 99750 46
2012-04-26 08:56:12 51°13.451 2°51.777 1.5 24 11.7 99750 47
2012-04-26 08:56:18 51°13.439 2°51.749 0.8 282 11.7 99750 47
2012-04-26 08:56:23 51°13.43 2°51.726 1.5 24 11.6 99740 47
2012-04-26 08:56:28 51°13.42 2°51.702 1.2 282 11.6 99740 47
2012-04-26 08:56:33 51°13.411 2°51.679 4.4 33 11.7 99740 46
2012-04-26 08:56:38 51°13.401 2°51.655 1.6 282 11.7 99740 46
2012-04-26 08:56:43 51°13.392 2°51.632 1.9 24 11.7 99740 47
2012-04-26 08:56:48 51°13.383 2°51.608 2.8 282 11.7 99740 47
2012-04-26 08:56:53 51°13.373 2°51.584 5.6 35 11.7 99740 47
2012-04-26 08:56:58 51°13.364 2°51.561 5.9 283 11.7 99740 47
2012-04-26 08:57:03 51°13.354 2°51.537 7.8 24 11.7 99740 47
2012-04-26 08:57:08 51°13.345 2°51.513 4.4 282 11.7 99740 47
2012-04-26 08:57:12 51°13.338 2°51.495 14.3 21 11.7 99750 47
2012-04-26 08:57:18 51°13.327 2°51.466 7.2 282 11.7 99750 47
2012-04-26 08:57:23 51°13.318 2°51.441 1 316 11.7 99740 47
2012-04-26 08:57:28 51°13.31 2°51.417 1.5 282 11.7 99740 47
2012-04-26 08:57:33 51°13.302 2°51.392 2.9 24 11.7 99750 47
2012-04-26 08:57:38 51°13.295 2°51.367 5.8 282 11.7 99750 47
2012-04-26 08:57:43 51°13.287 2°51.342 4.4 35 11.7 99760 47
2012-04-26 08:57:48 51°13.28 2°51.317 8.5 286 11.7 99760 47
2012-04-26 08:57:53 51°13.273 2°51.291 1.8 24 11.7 99760 47
2012-04-26 08:57:58 51°13.265 2°51.266 3.2 282 11.7 99760 47
2012-04-26 08:58:03 51°13.258 2°51.241 1 36 11.7 99740 47
2012-04-26 08:58:08 51°13.251 2°51.215 0.5 282 11.7 99740 47
2012-04-26 08:58:12 51°13.245 2°51.195 8.7 24 11.7 99750 47
2012-04-26 08:58:18 51°13.236 2°51.164 5.7 283 11.7 99750 47
2012-04-26 08:58:23 51°13.228 2°51.139 0.9 24 11.7 99750 47
2012-04-26 08:58:28 51°13.22 2°51.114 1.5 282 11.7 99750 47
2012-04-26 08:58:32 51°13.215 2°51.093 0.7 24 11.7 99750 47
2012-04-26 08:58:38 51°13.206 2°51.063 7.5 282 11.7 99750 47
2012-04-26 08:58:43 51°13.198 2°51.038 8.5 24 11.7 99740 46
2012-04-26 08:58:48 51°13.19 2°51.012 6.4 284 11.7 99740 46
2012-04-26 08:58:53 51°13.182 2°50.987 3.5 35 11.7 99740 47
2012-04-26 08:58:58 51°13.174 2°50.961 5.3 284 11.7 99740 47
2012-04-26 08:59:03 51°13.167 2°50.936 0.9 35 11.7 99760 47
2012-04-26 08:59:08 51°13.159 2°50.911 14.3 -999 11.7 99760 47
2012-04-26 08:59:12 51°13.152 2°50.891 0.6 24 11.7 99760 47
2012-04-26 08:59:18 51°13.142 2°50.861 0.5 282 11.7 99760 47
2012-04-26 08:59:23 51°13.133 2°50.837 0.5 315 11.7 99750 47
2012-04-26 08:59:28 51°13.124 2°50.813 4.6 283 11.7 99750 47
2012-04-26 08:59:32 51°13.116 2°50.794 1.5 24 11.7 99760 47
2012-04-26 08:59:38 51°13.105 2°50.765 1.7 282 11.7 99760 47
2012-04-26 08:59:43 51°13.096 2°50.741 1.5 24 11.6 99760 47
2012-04-26 08:59:48 51°13.087 2°50.717 7.6 282 11.6 99760 47
2012-04-26 08:59:53 51°13.078 2°50.692 4.4 24 11.6 99760 47
2012-04-26 08:59:58 51°13.069 2°50.668 1 282 11.6 99760 47
2012-04-26 09:00:03 51°13.06 2°50.644 17.3 35 11.6 99760 47
2012-04-26 09:00:08 51°13.052 2°50.619 3.7 283 11.6 99760 47
2012-04-26 09:00:13 51°13.043 2°50.594 7.9 315 11.6 99750 47
2012-04-26 09:00:18 51°13.034 2°50.57 1.2 283 11.6 99750 47
2012-04-26 09:00:23 51°13.026 2°50.545 2.9 35 11.6 99760 48
2012-04-26 09:00:28 51°13.018 2°50.52 0.6 282 11.6 99760 48
2012-04-26 09:00:33 51°13.01 2°50.495 1.7 35 11.6 99760 48
2012-04-26 09:00:38 51°13.001 2°50.47 0.7 282 11.6 99760 48
2012-04-26 09:00:43 51°12.993 2°50.446 3.2 24 11.6 99760 47
2012-04-26 09:00:48 51°12.984 2°50.422 8.5 282 11.6 99760 47
2012-04-26 09:00:53 51°12.974 2°50.399 7.6 317 11.6 99760 47
2012-04-26 09:00:58 51°12.965 2°50.375 2 282 11.6 99760 47
2012-04-26 09:01:03 51°12.955 2°50.352 1.7 315 11.6 99760 47
2012-04-26 09:01:08 51°12.946 2°50.329 1.9 282 11.6 99760 47
2012-04-26 09:01:13 51°12.936 2°50.306 4.3 35 11.6 99760 48
2012-04-26 09:01:18 51°12.926 2°50.284 4.9 282 11.6 99760 48
2012-04-26 09:01:23 51°12.916 2°50.261 7.7 315 11.6 99770 47
2012-04-26 09:01:28 51°12.906 2°50.238 5.7 282 11.6 99770 47
2012-04-26 09:01:32 51°12.898 2°50.22 1.6 316 11.6 99750 47
2012-04-26 09:01:38 51°12.887 2°50.192 2.5 282 11.6 99750 47
2012-04-26 09:01:43 51°12.877 2°50.17 17 24 11.6 99770 47
2012-04-26 09:01:48 51°12.867 2°50.147 1.2 282 11.6 99770 47
2012-04-26 09:01:53 51°12.857 2°50.124 8.1 317 11.6 99760 48
2012-04-26 09:01:58 51°12.848 2°50.101 5 285 11.6 99760 48
2012-04-26 09:02:03 51°12.838 2°50.078 15 316 11.6 99770 47
2012-04-26 09:02:08 51°12.829 2°50.054 0.9 283 11.6 99770 47
2012-04-26 09:02:13 51°12.82 2°50.03 4.4 24 11.6 99770 48
2012-04-26 09:02:18 51°12.812 2°50.006 1.9 282 11.6 99770 48
2012-04-26 09:02:23 51°12.804 2°49.981 1.3 35 11.6 99760 47
2012-04-26 09:02:28 51°12.797 2°49.956 2.2 282 11.6 99760 47
2012-04-26 09:02:33 51°12.791 2°49.929 1.5 24 11.6 99770 47
2012-04-26 09:02:38 51°12.785 2°49.904 1.1 283 11.6 99770 47
2012-04-26 09:02:43 51°12.779 2°49.877 2.4 24 11.6 99760 47
2012-04-26 09:02:48 51°12.773 2°49.85 1 282 11.6 99760 47
2012-04-26 09:02:52 51°12.769 2°49.829 7.9 24 11.6 99760 47
2012-04-26 09:02:58 51°12.763 2°49.796 7 282 11.6 99760 47
2012-04-26 09:03:03 51°12.758 2°49.769 2.5 24 11.6 99770 47
2012-04-26 09:03:08 51°12.753 2°49.742 13.4 282 11.6 99770 47
2012-04-26 09:03:13 51°12.748 2°49.715 13.7 32 11.6 99760 47
2012-04-26 09:03:18 51°12.743 2°49.688 6.8 282 11.6 99760 47
2012-04-26 09:03:23 51°12.737 2°49.661 2.3 24 11.6 99760 48
2012-04-26 09:03:28 51°12.731 2°49.634 0.5 282 11.6 99760 48
2012-04-26 09:03:32 51°12.727 2°49.612 3 25 11.6 99770 47
2012-04-26 09:03:38 51°12.72 2°49.579 2.8 282 11.6 99770 47
2012-04-26 09:03:43 51°12.714 2°49.552 0.3 24 11.6 99770 48
2012-04-26 09:03:48 51°12.708 2°49.525 8.8 282 11.6 99770 48
2012-04-26 09:03:52 51°12.703 2°49.504 0.2 24 11.6 99770 47
2012-04-26 09:03:58 51°12.696 2°49.472 0.9 282 11.6 99770 47
2012-04-26 09:04:03 51°12.69 2°49.445 2.6 24 11.6 99770 46
2012-04-26 09:04:08 51°12.682 2°49.419 7.5 -999 11.6 99770 46
2012-04-26 09:04:12 51°12.676 2°49.398 1.5 24 11.6 99720 47
2012-04-26 09:04:18 51°12.667 2°49.367 2.2 282 11.6 99720 47
2012-04-26 09:04:23 51°12.66 2°49.342 4.5 32 11.6 99770 48
2012-04-26 09:04:28 51°12.652 2°49.316 1.1 281 11.6 99770 48
2012-04-26 09:04:32 51°12.645 2°49.296 17 315 11.6 99770 48
2012-04-26 09:04:38 51°12.635 2°49.266 7.6 282 11.6 99770 48
2012-04-26 09:04:42 51°12.628 2°49.246 7.6 316 11.6 99770 47
2012-04-26 09:04:48 51°12.619 2°49.215 1.1 282 11.6 99770 47
2012-04-26 09:04:52 51°12.613 2°49.194 1.1 35 11.6 99770 47
2012-04-26 09:04:58 51°12.604 2°49.163 0.7 282 11.6 99770 47
2012-04-26 09:05:03 51°12.597 2°49.137 0.3 24 11.6 99770 48
2012-04-26 09:05:08 51°12.591 2°49.11 2.9 -999 11.6 99770 48
2012-04-26 09:05:12 51°12.586 2°49.089 1.2 24 11.6 99770 48
2012-04-26 09:05:17 51°12.58 2°49.062 4.4 282 11.6 99770 48
2012-04-26 09:05:23 51°12.572 2°49.03 0.8 35 11.6 99770 47
2012-04-26 09:05:28 51°12.566 2°49.003 7.4 282 11.6 99770 47
2012-04-26 09:05:32 51°12.561 2°48.981 2.6 24 11.6 99770 47
2012-04-26 09:05:36 51°12.556 2°48.96 2.5 282 11.6 99770 47
2012-04-26 09:05:43 51°12.546 2°48.924 2.2 24 11.6 99770 47
2012-04-26 09:05:48 51°12.539 2°48.898 0.6 282 11.6 99770 47
2012-04-26 09:05:52 51°12.533 2°48.877 2.3 24 11.6 99770 48
2012-04-26 09:05:58 51°12.524 2°48.846 0.8 283 11.6 99770 48
2012-04-26 09:06:04 51°12.515 2°48.816 6.1 35 11.6 99760 47
2012-04-26 09:06:09 51°12.507 2°48.79 1.6 279 11.6 99760 47
2012-04-26 09:06:13 51°12.501 2°48.77 7.5 26 11.6 99770 47
2012-04-26 09:06:18 51°12.494 2°48.743 14.4 282 11.6 99770 47
2012-04-26 09:06:23 51°12.487 2°48.717 13.4 35 11.6 99770 47
2012-04-26 09:06:28 51°12.481 2°48.69 1.3 282 11.6 99770 47
2012-04-26 09:06:33 51°12.474 2°48.664 1.9 25 11.6 99770 47
2012-04-26 09:06:38 51°12.468 2°48.637 7.1 282 11.6 99770 47
2012-04-26 09:06:43 51°12.461 2°48.611 1.3 24 11.6 99770 46
2012-04-26 09:06:48 51°12.455 2°48.584 2.6 281 11.6 99770 46
2012-04-26 09:06:53 51°12.449 2°48.558 2.6 24 11.6 99770 47
2012-04-26 09:06:58 51°12.443 2°48.531 7.5 283 11.6 99770 47
2012-04-26 09:07:03 51°12.437 2°48.504 1.4 315 11.6 99770 47
2012-04-26 09:07:08 51°12.43 2°48.478 4.4 282 11.6 99770 47
2012-04-26 09:07:13 51°12.423 2°48.452 3.5 35 11.6 99770 47
2012-04-26 09:07:18 51°12.416 2°48.427 2 282 11.6 99770 47
2012-04-26 09:07:23 51°12.408 2°48.401 2.4 25 11.6 99770 47
2012-04-26 09:07:28 51°12.4 2°48.376 7.5 283 11.6 99770 47
2012-04-26 09:07:33 51°12.392 2°48.351 1 24 11.6 99770 47
2012-04-26 09:07:38 51°12.384 2°48.325 5 285 11.6 99770 47
2012-04-26 09:07:43 51°12.376 2°48.3 0.4 315 11.6 99770 47
2012-04-26 09:07:48 51°12.368 2°48.276 0.6 282 11.6 99770 47
2012-04-26 09:07:53 51°12.359 2°48.251 2.8 24 11.6 99770 48
2012-04-26 09:07:58 51°12.35 2°48.227 1.5 282 11.6 99770 48
2012-04-26 09:08:03 51°12.341 2°48.202 1.4 24 11.6 99780 47